TimeCET,TemperatureF,Dew PointF,Humidity,Sea Level PressureIn,VisibilityMPH,Wind Direction,Wind SpeedMPH,Gust SpeedMPH,PrecipitationIn,Events,Conditions,WindDirDegrees,DateUTC
12:00 AM,51.8,50.0,94,29.53,6.2,SW,4.6,-,N/A,,Partly Cloudy,230,2013-03-12 23:00:00
12:30 AM,50.0,48.2,94,29.53,6.2,WSW,5.8,-,N/A,,Partly Cloudy,250,2013-03-12 23:30:00
1:00 AM,50,44,73,29.55,12,West,10.4,,,,Partly Cloudy,260,2013-03-13 00:00:00
1:00 AM,51.8,46.4,82,29.53,6.2,West,10.4,-,N/A,,Partly Cloudy,270,2013-03-13 00:00:00
1:30 AM,51.8,46.4,82,29.53,6.2,WSW,11.5,-,N/A,,Partly Cloudy,250,2013-03-13 00:30:00
2:00 AM,50.0,44.6,82,29.53,6.2,West,8.1,-,N/A,,Partly Cloudy,280,2013-03-13 01:00:00
2:30 AM,50.0,44.6,82,29.53,6.2,WNW,5.8,-,N/A,,Partly Cloudy,290,2013-03-13 01:30:00
3:00 AM,51.8,42.8,71,29.53,6.2,West,3.5,-,N/A,,Partly Cloudy,260,2013-03-13 02:00:00
3:30 AM,48.2,42.8,82,29.50,6.2,WNW,4.6,-,N/A,,Partly Cloudy,290,2013-03-13 02:30:00
4:00 AM,50.0,42.8,76,29.50,6.2,WNW,4.6,-,N/A,,Partly Cloudy,300,2013-03-13 03:00:00
4:30 AM,48.2,41.0,76,29.50,6.2,Variable,2.3,-,N/A,,Partly Cloudy,0,2013-03-13 03:30:00
5:00 AM,51.8,41.0,67,29.50,6.2,NW,3.5,-,N/A,,Partly Cloudy,310,2013-03-13 04:00:00
5:30 AM,48.2,41.0,76,29.50,6.2,Calm,Calm,-,N/A,,Partly Cloudy,0,2013-03-13 04:30:00
6:00 AM,46.4,41.0,81,29.50,6.2,Variable,1.2,-,N/A,,Partly Cloudy,0,2013-03-13 05:00:00
6:30 AM,48.2,41.0,76,29.50,6.2,Variable,1.2,-,N/A,,Partly Cloudy,0,2013-03-13 05:30:00
7:00 AM,45,38,68,29.52,19,SW,3.5,,,,Scattered Clouds,230,2013-03-13 06:00:00
7:00 AM,46.4,41.0,81,29.50,6.2,Variable,2.3,-,N/A,,Partly Cloudy,0,2013-03-13 06:00:00
7:30 AM,46.4,41.0,81,29.50,6.2,WSW,8.1,-,N/A,,Partly Cloudy,250,2013-03-13 06:30:00
8:00 AM,50.0,41.0,71,29.50,6.2,WSW,8.1,-,N/A,,Partly Cloudy,250,2013-03-13 07:00:00
8:30 AM,53.6,41.0,62,29.53,6.2,West,10.4,-,N/A,,Partly Cloudy,270,2013-03-13 07:30:00
9:00 AM,53.6,37.4,54,29.53,6.2,West,11.5,-,N/A,,Scattered Clouds,270,2013-03-13 08:00:00
10:00 AM,53.6,32.0,44,29.56,6.2,West,18.4,-,N/A,,Scattered Clouds,270,2013-03-13 09:00:00
10:30 AM,55.4,33.8,44,29.56,6.2,West,23.0,34.5,N/A,,Partly Cloudy,270,2013-03-13 09:30:00
11:00 AM,55.4,33.8,44,29.56,6.2,West,23.0,36.8,N/A,,Scattered Clouds,270,2013-03-13 10:00:00
11:30 AM,53.6,32.0,44,29.56,6.2,West,26.5,40.3,N/A,,Scattered Clouds,270,2013-03-13 10:30:00
12:00 PM,55.4,32.0,41,29.56,6.2,West,29.9,43.7,N/A,,Scattered Clouds,280,2013-03-13 11:00:00
12:30 PM,55.4,30.2,38,29.56,6.2,West,26.5,41.4,N/A,,Scattered Clouds,280,2013-03-13 11:30:00
1:00 PM,56,27,21,29.58,34,WNW,33.4,,,,Partly Cloudy,290,2013-03-13 12:00:00
1:00 PM,55.4,30.2,38,29.56,6.2,WNW,33.4,46.0,N/A,,Scattered Clouds,290,2013-03-13 12:00:00
1:30 PM,55.4,30.2,38,29.56,6.2,West,28.8,42.6,N/A,,Scattered Clouds,280,2013-03-13 12:30:00
2:00 PM,57.2,28.4,33,29.56,6.2,WNW,32.2,44.9,N/A,,Partly Cloudy,290,2013-03-13 13:00:00
2:30 PM,57.2,26.6,31,29.56,6.2,WNW,27.6,47.2,N/A,,Partly Cloudy,300,2013-03-13 13:30:00
3:00 PM,57.2,28.4,33,29.56,6.2,WNW,28.8,41.4,N/A,,Partly Cloudy,290,2013-03-13 14:00:00
3:30 PM,57.2,26.6,31,29.56,6.2,WNW,29.9,44.9,N/A,,Partly Cloudy,300,2013-03-13 14:30:00
4:00 PM,57.2,28.4,33,29.56,6.2,West,29.9,44.9,N/A,,Partly Cloudy,280,2013-03-13 15:00:00
4:30 PM,57.2,21.2,25,29.56,6.2,WNW,34.5,49.5,N/A,,Partly Cloudy,290,2013-03-13 15:30:00
5:00 PM,57.2,21.2,25,29.59,6.2,WNW,25.3,40.3,N/A,,Partly Cloudy,300,2013-03-13 16:00:00
5:30 PM,57.2,21.2,25,29.62,6.2,WNW,26.5,40.3,N/A,,Partly Cloudy,300,2013-03-13 16:30:00
6:00 PM,55.4,19.4,25,29.65,6.2,WNW,29.9,42.6,N/A,,Partly Cloudy,300,2013-03-13 17:00:00
6:30 PM,55.4,21.2,26,29.65,6.2,WNW,27.6,40.3,N/A,,Partly Cloudy,290,2013-03-13 17:30:00
7:00 PM,52,19,15,29.69,19,West,24.2,,,,Scattered Clouds,280,2013-03-13 18:00:00
7:00 PM,53.6,21.2,28,29.68,6.2,West,24.2,38.0,N/A,,Partly Cloudy,280,2013-03-13 18:00:00
7:30 PM,51.8,23.0,33,29.68,6.2,West,21.9,34.5,N/A,,Partly Cloudy,280,2013-03-13 18:30:00
8:00 PM,50.0,24.8,37,29.71,6.2,West,12.7,-,N/A,,Partly Cloudy,280,2013-03-13 19:00:00
8:30 PM,51.8,21.2,30,29.74,6.2,West,23.0,36.8,N/A,,Partly Cloudy,280,2013-03-13 19:30:00
9:00 PM,50.0,19.4,30,29.74,6.2,WNW,28.8,44.9,N/A,,Partly Cloudy,290,2013-03-13 20:00:00
9:30 PM,50.0,19.4,30,29.74,6.2,WNW,26.5,39.1,N/A,,Partly Cloudy,290,2013-03-13 20:30:00
10:00 PM,48.2,21.2,34,29.74,6.2,WNW,21.9,-,N/A,,Partly Cloudy,300,2013-03-13 21:00:00
10:30 PM,48.2,19.4,32,29.74,6.2,WNW,25.3,46.0,N/A,,Partly Cloudy,300,2013-03-13 21:30:00
11:00 PM,48.2,19.4,32,29.77,6.2,WNW,24.2,38.0,N/A,,Partly Cloudy,300,2013-03-13 22:00:00
11:30 PM,48.2,17.6,30,29.77,6.2,WNW,20.7,36.8,N/A,,Partly Cloudy,300,2013-03-13 22:30:00